Regional Weather Roundup
Issued by NWS Spokane, WA

Home | Current Version | Previous Version | Text Only | Print | Product List | Glossary On
Versions: 1 2 3 4 5 6 7 8 9 10 11 12 13 14 15 16 17 18 19 20 21 22 23 24 25 26 27 28 29 30 31 32 33 34 35 36 37 38 39 40 41 42 43 44 45 46 47 48 49 50
000
NZUS01 KOTX 222025
RWROTX

Eastern Washington/Northern Idaho Roundup
National Weather Service, Spokane WA
1200 PM PST WED FEB 22 2017

Note: "fair" indicated few or no clouds below 12,000 feet with no
significant weather and/or obstructions to visibility.

...Northeast Washington and Northern Idaho Panhandle...

CITY           SKY/WX    TMP DP  RH WIND       PRES   REMARKS
Spokane Intl   CLOUDY    32  28  85 CALM      30.03F
Spokane Downto CLOUDY    35  31  85 SW5       30.06F
Coeur d Alene  CLOUDY    33  30  88 S6        30.04F WCI  28
Deer Park      CLOUDY    35  26  69 CALM      30.05S
Sandpoint      PTSUNNY   37  30  75 SW6       30.02F

...Southeast Washington and southern Idaho Panhandle...

CITY           SKY/WX    TMP DP  RH WIND       PRES   REMARKS
Walla Walla    PTSUNNY   42  31  64 S13       30.09F
Pullman/Moscow CLOUDY    35  30  82 W9        30.05F WCI  28
Lewiston       PTSUNNY   45  32  60 N5        30.06F
Lowell           N/A     38  34  85 VRB5      30.07F
Grangeville    CLOUDY    32  30  93 E5        30.00F WCI  27

...Columbia Basin...

CITY           SKY/WX    TMP DP  RH WIND       PRES   REMARKS
Ephrata        PTSUNNY   35  26  69 CALM      30.09F
Moses Lake     PTSUNNY   34  31  88 CALM      30.11F
Pasco          MOSUNNY   47  29  49 NW6       30.13F
Richland       PTCLDY    49  32  51 SW5       30.11F
Hermiston      PTSUNNY   41  34  76 W9        30.12F
Pendleton      PTSUNNY   40  31  70 W12       30.08F

...East Slopes Cascades...

CITY           SKY/WX    TMP DP  RH WIND       PRES   REMARKS
The Dalles     MOSUNNY   47  31  53 NW17      30.14F
Yakima         MOSUNNY   45  24  43 W6        30.10F
Ellensburg     MOSUNNY   40  26  57 NW13      30.06F
Stampede Pass  CLOUDY    26  32 100 VRB5      30.01F WCI  20
Wenatchee      MOSUNNY   37  29  72 E5        30.08F
Omak           MOSUNNY   39  27  62 CALM      30.10F
Chelan           N/A     36  18  48 N6          N/A
Sunnyside      PTCLDY    34  32  93 CALM      30.11F

...Southern British Columbia...

CITY           SKY/WX    TMP DP  RH WIND       PRES   REMARKS
Penticton      PTSUNNY   37  27  65 S3        30.11F
Castlegar      MOSUNNY   37  27  65 CALM      30.05F
Cranbrook      MOSUNNY   32  28  86 E8        29.95F WCI  25
Osoyoos          N/A     39  28  65 SW2         N/A
Creston          N/A     41  34  75 SW1         N/A

...Western Montana...

CITY           SKY/WX    TMP DP  RH WIND       PRES   REMARKS
Kalispell      MOCLDY    37  27  67 CALM      29.95F
Missoula       CLOUDY    36  30  79 W7        29.95F

...Neighboring Cities...

CITY           SKY/WX    TMP DP  RH WIND       PRES   REMARKS
Seattle        PTSUNNY   41  34  76 S5        30.19F
Portland       FOG       37  37 100 N3        30.22F VSB 1/2
Boise          CLOUDY    39  27  62 W9        29.94F
Great Falls    CLOUDY    37  27  67 N8        29.89F
Calgary        LGT SNOW  27  21  80 N6        29.96R VSB 1   WCI  20



USA.gov is the U.S. government's official web portal to all federal, state and local government web resources and services.